Location: Harmony
(28.2000°N, 81.1500°W)
Time: 14:00:35
(UTC-04:00)

Cosmos 1745 Rocket - Pass Details

Date: 18 December 2017
Orbit: 952 x 999 km, 83.0° (Epoch: 19 April)

Event Time Altitude Azimuth Distance (km) Brightness Sun altitude
Rises 19:05:26 0° 1° (N) 3,661 6.8 -20.0°
Reaches altitude 10° 19:08:01 10° 7° (N) 2,718 6.1 -20.5°
Maximum altitude 19:14:04 52° 83° (E) 1,204 4.1 -21.8°
Drops below altitude 10° 19:20:09 10° 158° (SSE) 2,738 6.3 -23.1°
Sets 19:22:45 0° 163° (SSE) 3,689 7.0 -23.6°
